Starlink 33569

operational
NORAD ID: 62769 Int'l Des: 2025-015 Owner: SPXS Country: US Constellation: starlink
LEOCIRCULAR

关于 Starlink 33569

正在加载描述...

实时位置

正在加载3D地球...

即将过境

高度历史

Altitude vs Time

uPlot chart will show altitude changes over time

两行轨道根数

1 62769U 25015M 25307.95208646 .00025969 00000-0 88593-3 0 9997
2 62769 53.1585 186.2491 0001115 87.5656 272.5473 15.30197797 45238
Epoch: Nov 3, 2025 • Age: 12 hours

当前状态

高度 480.6 km
速度 7.63 km/s
星下点 -18.59°S, 173.93°E
发射日期 Jan 21, 2025
运行时间 0.7 years
类型 internet

技术详情

分类 Payload
质量 575.00 kg
干质量 530.00 kg
总质量 575.00 kg
长度 0.30 m
直径 4.10 m
跨度 29.00 m
形状 Box + pan
制造商 SPXS
平台类型 Starlink V2MO
阶段状态 In Orbit
所有者/国家 SPXS/US

大型星座

Loading constellations...